PAL494 RPLL-RPMR

Flight info

Callsign PAL494
Flight time N/A
Altitude 39000
Route VERDE2R VERDE A461 SAJ W3 JULOR/N0484F410 W3 IOO B472 COT W19 MELBY MELBY3P
Aircraft A359/H-SDE2E3GHIJ3J4J5LM1ORWXY/LB1D1

Departure

Time N/A
Airport Ninoy Aquino International Airport (RPLL)

Arrival

Time 2026-04-25 12:56
Airport General Santos International Airport (RPMR)
Time Latitude Longitude Altitude Speed Heading
2026-04-25 11:45 12.59768 121.04073 28446 ft 464 kts 181°
2026-04-25 11:45 12.56479 121.04105 28701 ft 466 kts 181°
2026-04-25 11:45 12.54790 121.04122 28832 ft 467 kts 181°
2026-04-25 11:46 12.51576 121.04153 29083 ft 468 kts 181°
2026-04-25 11:46 12.48305 121.04185 29326 ft 470 kts 181°
2026-04-25 11:46 12.45825 121.04210 29501 ft 471 kts 181°
2026-04-25 11:47 12.42541 121.04352 29745 ft 475 kts 176°
2026-04-25 11:47 12.39268 121.04920 30009 ft 478 kts 168°
2026-04-25 11:47 12.37239 121.05538 30147 ft 481 kts 162°
2026-04-25 11:48 12.34180 121.06934 30402 ft 484 kts 153°
2026-04-25 11:48 12.31360 121.08827 30671 ft 487 kts 143°
2026-04-25 11:48 12.28793 121.11086 30931 ft 489 kts 139°
2026-04-25 11:48 12.26300 121.13449 31209 ft 490 kts 138°
2026-04-25 11:49 12.24748 121.14954 31369 ft 491 kts 138°
2026-04-25 11:49 12.21505 121.18121 31718 ft 492 kts 138°
2026-04-25 11:50 12.19027 121.20533 31978 ft 492 kts 138°
2026-04-25 11:50 12.16530 121.22948 32227 ft 493 kts 138°
2026-04-25 11:50 12.14036 121.25345 32458 ft 494 kts 139°
2026-04-25 11:50 12.11517 121.27756 32670 ft 495 kts 139°
2026-04-25 11:51 12.09002 121.30158 32904 ft 496 kts 139°
2026-04-25 11:51 12.06471 121.32573 33140 ft 497 kts 139°
2026-04-25 11:51 12.03949 121.34979 33376 ft 497 kts 139°
2026-04-25 11:51 12.01411 121.37399 33628 ft 497 kts 139°
2026-04-25 11:52 11.98919 121.39776 33995 ft 495 kts 139°
2026-04-25 11:52 11.96403 121.42177 34314 ft 493 kts 139°
2026-04-25 11:52 11.93900 121.44564 34564 ft 493 kts 139°
2026-04-25 11:52 11.91386 121.46961 34841 ft 493 kts 139°
2026-04-25 11:53 11.88885 121.49345 35126 ft 493 kts 139°
2026-04-25 11:53 11.86375 121.51737 35416 ft 492 kts 139°
2026-04-25 11:53 11.83876 121.54117 35691 ft 492 kts 139°
2026-04-25 11:53 11.81366 121.56507 35973 ft 492 kts 139°
2026-04-25 11:54 11.78869 121.58885 36255 ft 492 kts 139°
2026-04-25 11:54 11.76359 121.61274 36534 ft 492 kts 139°
2026-04-25 11:54 11.74701 121.62852 36723 ft 492 kts 139°
2026-04-25 11:55 11.72257 121.65178 36994 ft 492 kts 139°
2026-04-25 11:55 11.70585 121.66768 37184 ft 492 kts 139°
2026-04-25 11:55 11.67267 121.69924 37569 ft 492 kts 139°
2026-04-25 11:55 11.64771 121.72299 37861 ft 492 kts 139°
2026-04-25 11:56 11.63086 121.73906 38049 ft 491 kts 139°
2026-04-25 11:56 11.60579 121.76290 38338 ft 491 kts 139°
2026-04-25 11:56 11.58083 121.78660 38606 ft 491 kts 139°
2026-04-25 11:56 11.55574 121.81041 38832 ft 492 kts 139°
2026-04-25 11:57 11.53074 121.83413 38909 ft 491 kts 139°
2026-04-25 11:57 11.48078 121.88155 38916 ft 490 kts 139°
2026-04-25 11:58 11.43102 121.92854 38918 ft 490 kts 139°
2026-04-25 11:58 11.38125 121.97584 38920 ft 490 kts 139°
2026-04-25 11:59 11.33145 122.02315 38923 ft 489 kts 139°
2026-04-25 11:59 11.28151 122.07049 38927 ft 489 kts 139°
2026-04-25 12:00 11.20711 122.14095 38928 ft 488 kts 139°
2026-04-25 12:01 11.13258 122.21144 38935 ft 487 kts 139°
2026-04-25 12:01 11.08260 122.25868 38936 ft 487 kts 139°
2026-04-25 12:02 11.00831 122.32896 38928 ft 487 kts 139°
2026-04-25 12:02 10.95853 122.37590 38933 ft 487 kts 139°
2026-04-25 12:03 10.90869 122.42289 38928 ft 487 kts 139°
2026-04-25 12:03 10.85920 122.46932 38916 ft 487 kts 140°
2026-04-25 12:04 10.80276 122.50722 38916 ft 483 kts 154°
2026-04-25 12:04 10.74263 122.53673 38912 ft 483 kts 156°
2026-04-25 12:05 10.68160 122.56523 38909 ft 482 kts 156°
2026-04-25 12:05 10.62055 122.59377 38905 ft 482 kts 156°
2026-04-25 12:06 10.55979 122.62240 38903 ft 481 kts 156°
2026-04-25 12:06 10.49912 122.65107 38897 ft 481 kts 156°
2026-04-25 12:07 10.43833 122.67979 38901 ft 481 kts 156°
2026-04-25 12:07 10.37785 122.70837 38900 ft 482 kts 156°
2026-04-25 12:08 10.31702 122.73714 38904 ft 482 kts 156°
2026-04-25 12:08 10.25622 122.76578 38911 ft 482 kts 156°
2026-04-25 12:09 10.19540 122.79442 38907 ft 481 kts 156°
2026-04-25 12:09 10.13462 122.82314 38913 ft 481 kts 155°
2026-04-25 12:10 10.07374 122.85181 38915 ft 482 kts 156°
2026-04-25 12:10 10.01331 122.88022 38920 ft 482 kts 155°
2026-04-25 12:11 9.95207 122.90902 38918 ft 482 kts 155°
2026-04-25 12:11 9.89161 122.93748 38924 ft 482 kts 155°
2026-04-25 12:12 9.84069 122.96144 38926 ft 482 kts 155°
2026-04-25 12:12 9.77002 122.99468 38923 ft 481 kts 156°
2026-04-25 12:13 9.70894 123.02337 38924 ft 481 kts 156°
2026-04-25 12:13 9.64866 123.05169 38923 ft 480 kts 156°
2026-04-25 12:14 9.58806 123.08015 38914 ft 480 kts 156°
2026-04-25 12:14 9.52709 123.10878 38904 ft 480 kts 156°
2026-04-25 12:15 9.46687 123.13704 38896 ft 480 kts 156°
2026-04-25 12:15 9.40622 123.16548 38889 ft 481 kts 156°
2026-04-25 12:16 9.34545 123.19399 38887 ft 481 kts 156°
2026-04-25 12:16 9.28461 123.22251 38887 ft 482 kts 156°
2026-04-25 12:17 9.22369 123.25105 38890 ft 482 kts 156°
2026-04-25 12:17 9.16266 123.27965 38889 ft 482 kts 156°
2026-04-25 12:18 9.10205 123.30806 38892 ft 482 kts 155°
2026-04-25 12:18 9.04111 123.33666 38902 ft 482 kts 156°
2026-04-25 12:19 8.94973 123.37935 38907 ft 482 kts 156°
2026-04-25 12:20 8.88886 123.40780 38906 ft 481 kts 156°
2026-04-25 12:20 8.82810 123.43622 38908 ft 481 kts 156°
2026-04-25 12:21 8.76749 123.46456 38911 ft 480 kts 156°
2026-04-25 12:21 8.70671 123.49296 38917 ft 480 kts 155°
2026-04-25 12:22 8.64644 123.52112 38919 ft 480 kts 155°
2026-04-25 12:22 8.58569 123.54949 38921 ft 481 kts 155°
2026-04-25 12:23 8.52496 123.57783 38925 ft 481 kts 155°
2026-04-25 12:23 8.46411 123.60622 38928 ft 481 kts 155°
2026-04-25 12:24 8.40346 123.63451 38927 ft 481 kts 155°
2026-04-25 12:24 8.34249 123.66295 38929 ft 481 kts 155°
2026-04-25 12:25 8.29195 123.68651 38932 ft 481 kts 155°
2026-04-25 12:25 8.22093 123.71961 38927 ft 481 kts 155°
2026-04-25 12:26 8.16012 123.74794 38928 ft 481 kts 155°
2026-04-25 12:26 8.09929 123.77626 38927 ft 481 kts 155°
2026-04-25 12:27 8.03832 123.80465 38927 ft 481 kts 155°
2026-04-25 12:27 7.97760 123.83291 38925 ft 481 kts 155°
2026-04-25 12:28 7.91670 123.86124 38923 ft 481 kts 155°
2026-04-25 12:28 7.85589 123.88952 38922 ft 481 kts 155°
2026-04-25 12:29 7.79514 123.91777 38924 ft 481 kts 155°
2026-04-25 12:29 7.73483 123.94580 38925 ft 480 kts 155°
2026-04-25 12:30 7.67384 123.97414 38919 ft 480 kts 155°
2026-04-25 12:30 7.61350 124.00211 38917 ft 480 kts 156°
2026-04-25 12:31 7.55269 124.03011 38914 ft 481 kts 155°
2026-04-25 12:31 7.49199 124.05845 38904 ft 481 kts 155°
2026-04-25 12:32 7.43126 124.08674 38905 ft 481 kts 155°
2026-04-25 12:32 7.37062 124.11490 38900 ft 481 kts 155°
2026-04-25 12:33 7.30997 124.14302 38651 ft 479 kts 154°
2026-04-25 12:33 7.27956 124.15712 38395 ft 480 kts 154°
2026-04-25 12:33 7.24922 124.17119 38132 ft 482 kts 154°
2026-04-25 12:33 7.21870 124.18534 37813 ft 481 kts 154°
2026-04-25 12:34 7.18850 124.19938 37201 ft 478 kts 155°
2026-04-25 12:34 7.15984 124.21640 36445 ft 478 kts 143°
2026-04-25 12:34 7.13348 124.23688 35650 ft 481 kts 141°
2026-04-25 12:34 7.12467 124.24397 35397 ft 481 kts 141°
2026-04-25 12:35 7.08114 124.27916 34109 ft 485 kts 141°
2026-04-25 12:35 7.05483 124.30047 33194 ft 488 kts 141°
2026-04-25 12:35 7.02823 124.32201 32293 ft 490 kts 141°
2026-04-25 12:35 7.00166 124.34353 31403 ft 493 kts 141°
2026-04-25 12:36 6.97479 124.36530 30471 ft 496 kts 141°
2026-04-25 12:36 6.94802 124.38699 29753 ft 494 kts 141°
2026-04-25 12:36 6.92137 124.40858 29039 ft 490 kts 141°
2026-04-25 12:36 6.89526 124.42972 28366 ft 485 kts 141°
2026-04-25 12:37 6.86909 124.45091 27708 ft 481 kts 141°
2026-04-25 12:37 6.84311 124.47194 27040 ft 477 kts 141°
2026-04-25 12:37 6.81747 124.49270 26382 ft 473 kts 141°
2026-04-25 12:37 6.79155 124.51368 25718 ft 469 kts 141°
2026-04-25 12:38 6.76631 124.53411 25070 ft 465 kts 140°
2026-04-25 12:38 6.74957 124.54765 24638 ft 463 kts 140°
2026-04-25 12:38 6.72460 124.56786 24007 ft 459 kts 140°
2026-04-25 12:38 6.69976 124.58796 23320 ft 456 kts 140°
2026-04-25 12:39 6.66697 124.61451 22394 ft 450 kts 140°
2026-04-25 12:39 6.65073 124.62746 21931 ft 447 kts 141°
2026-04-25 12:39 6.62607 124.64610 21275 ft 442 kts 142°
2026-04-25 12:39 6.60149 124.66447 20635 ft 437 kts 142°
2026-04-25 12:40 6.57731 124.68263 19980 ft 433 kts 142°
2026-04-25 12:40 6.55327 124.70076 19335 ft 429 kts 142°
2026-04-25 12:40 6.52960 124.71864 18698 ft 426 kts 142°
2026-04-25 12:40 6.50600 124.73650 18009 ft 423 kts 142°
2026-04-25 12:41 6.48255 124.75425 17297 ft 419 kts 142°
2026-04-25 12:41 6.45946 124.77174 16655 ft 414 kts 142°
2026-04-25 12:41 6.43658 124.78906 15993 ft 410 kts 142°
2026-04-25 12:41 6.41388 124.80625 15334 ft 405 kts 142°
2026-04-25 12:42 6.39191 124.82370 14687 ft 401 kts 137°
2026-04-25 12:42 6.37944 124.83719 14236 ft 398 kts 127°
2026-04-25 12:42 6.35807 124.86725 13324 ft 392 kts 123°
2026-04-25 12:42 6.34265 124.88976 12668 ft 387 kts 123°
2026-04-25 12:43 6.32742 124.91183 12055 ft 382 kts 123°
2026-04-25 12:43 6.31239 124.93348 11580 ft 373 kts 124°
2026-04-25 12:43 6.28124 124.97225 11316 ft 339 kts 128°
2026-04-25 12:44 6.26638 124.98988 11190 ft 324 kts 128°
2026-04-25 12:44 6.25215 125.00679 11068 ft 310 kts 128°
2026-04-25 12:44 6.22544 125.03855 10816 ft 285 kts 128°
2026-04-25 12:45 6.21276 125.05365 10531 ft 281 kts 128°
2026-04-25 12:45 6.20019 125.06863 10204 ft 279 kts 128°
2026-04-25 12:45 6.17508 125.09857 9524 ft 289 kts 127°
2026-04-25 12:46 6.16190 125.11429 9165 ft 291 kts 128°
2026-04-25 12:46 6.14890 125.12975 8816 ft 289 kts 128°
2026-04-25 12:46 6.13590 125.14520 8468 ft 288 kts 127°
2026-04-25 12:46 6.12299 125.16056 8125 ft 287 kts 128°
2026-04-25 12:47 6.10944 125.17523 7782 ft 288 kts 137°
2026-04-25 12:47 6.09201 125.18468 7448 ft 292 kts 163°
2026-04-25 12:47 6.07170 125.18809 7100 ft 292 kts 172°
2026-04-25 12:47 6.05151 125.19024 6745 ft 292 kts 172°
2026-04-25 12:48 6.03157 125.19246 6408 ft 291 kts 171°
2026-04-25 12:48 6.01123 125.19481 6047 ft 290 kts 171°
2026-04-25 12:48 5.99143 125.19716 5703 ft 289 kts 171°
2026-04-25 12:48 5.97126 125.19959 5352 ft 288 kts 171°
2026-04-25 12:49 5.95167 125.20196 5025 ft 286 kts 171°
2026-04-25 12:49 5.93203 125.20435 4742 ft 280 kts 170°
2026-04-25 12:49 5.91318 125.20559 4462 ft 260 kts 181°
2026-04-25 12:49 5.89667 125.20074 4186 ft 245 kts 210°
2026-04-25 12:50 5.88479 125.18952 3947 ft 228 kts 238°
2026-04-25 12:50 5.87909 125.17535 3728 ft 211 kts 262°
2026-04-25 12:50 5.87713 125.16151 3630 ft 191 kts 266°
2026-04-25 12:50 5.87577 125.14868 3551 ft 176 kts 267°
2026-04-25 12:51 5.87610 125.13679 3466 ft 168 kts 284°
2026-04-25 12:51 5.88052 125.12626 3415 ft 162 kts 309°
2026-04-25 12:51 5.88843 125.11894 3350 ft 149 kts 333°
2026-04-25 12:51 5.89790 125.11552 3285 ft 143 kts 353°
2026-04-25 12:52 5.90779 125.11425 3241 ft 143 kts 357°
2026-04-25 12:52 5.91768 125.11317 3196 ft 144 kts 356°
2026-04-25 12:52 5.92761 125.11205 3133 ft 144 kts 356°
2026-04-25 12:52 5.93754 125.11103 3090 ft 143 kts 356°
2026-04-25 12:53 5.94737 125.10977 3160 ft 143 kts 355°
2026-04-25 12:53 5.95724 125.10853 3407 ft 143 kts 356°
2026-04-25 12:53 5.96713 125.10735 3606 ft 145 kts 357°
2026-04-25 12:53 5.97753 125.10543 3228 ft 156 kts 351°
2026-04-25 12:54 5.98856 125.10351 2570 ft 174 kts 355°
2026-04-25 12:54 6.00135 125.10247 1846 ft 191 kts 353°
2026-04-25 12:54 6.01456 125.10118 1342 ft 191 kts 351°
2026-04-25 12:54 6.02753 125.09945 994 ft 184 kts 352°
2026-04-25 12:55 6.03991 125.09806 731 ft 172 kts 351°
2026-04-25 12:55 6.04769 125.09731 581 ft 165 kts 353°
2026-04-25 12:55 6.06158 125.09553 538 ft 141 kts 350°
2026-04-25 12:55 6.07000 125.09475 519 ft 85 kts 352°
2026-04-25 12:56 6.07209 125.09458 518 ft 0 kts 30°
2026-04-25 12:56 6.07210 125.09458 518 ft 1 kts 30°
2026-04-25 12:56 6.07218 125.09457 518 ft 2 kts 353°
2026-04-25 12:56 6.07222 125.09449 521 ft 1 kts 303°
2026-04-25 12:57 6.07219 125.09442 521 ft 2 kts 257°